GW7187 Weather Reports


time (UTC)temp
C
wind
direction
speed
KPH
gust
KPH
rain 1hr
cm
rain 24hr
cm
rain mn
cm
humidity
%
barometer
mb
20260508141748 26 35 0.0 0.0 0.00 0.00 0.00 41 1016.6
20260508141248 25 183 3.2 3.2 0.00 0.00 0.00 43 1016.6
20260508140748 25 236 6.4 8.0 0.00 0.00 0.00 42 1016.9
20260508140247 26 234 4.8 6.4 0.00 0.00 0.00 41 1016.9
20260508135748 26 239 4.8 4.8 0.00 0.00 0.00 43 1016.9
20260508135248 26 240 8.0 8.0 0.00 0.00 0.00 43 1016.9
20260508134747 26 171 3.2 3.2 0.00 0.00 0.00 41 1016.9
20260508134248 25 211 8.0 8.0 0.00 0.00 0.00 43 1016.9
20260508133748 26 207 8.0 9.7 0.00 0.00 0.00 42 1016.9
20260508133248 26 174 1.6 1.6 0.00 0.00 0.00 42 1016.9
20260508132747 26 288 4.8 4.8 0.00 0.00 0.00 41 1016.9
20260508132250 26 210 1.6 1.6 0.00 0.00 0.00 40 1016.9
20260508131747 25 294 3.2 3.2 0.00 0.00 0.00 41 1016.9
20260508131248 25 294 3.2 3.2 0.00 0.00 0.00 41 1016.9
20260508130249 26 294 4.8 4.8 0.00 0.00 0.00 41 1016.9
20260508125747 26 294 4.8 4.8 0.00 0.00 0.00 41 1016.9
20260508125248 26 294 4.8 4.8 0.00 0.00 0.00 41 1017.3
20260508124747 26 250 4.8 4.8 0.00 0.00 0.00 40 1017.3
20260508124247 26 204 1.6 1.6 0.00 0.00 0.00 41 1016.9
20260508123747 26 266 4.8 4.8 0.00 0.00 0.00 41 1017.3
20260508123247 26 228 4.8 4.8 0.00 0.00 0.00 41 1017.3
20260508122748 25 235 8.0 9.7 0.00 0.00 0.00 42 1017.6
20260508122248 25 238 0.0 0.0 0.00 0.00 0.00 41 1017.3
20260508121749 25 180 9.7 9.7 0.00 0.00 0.00 43 1017.6
20260508121248 26 204 6.4 6.4 0.00 0.00 0.00 40 1017.6
20260508120747 25 282 4.8 4.8 0.00 0.00 0.00 43 1017.6
20260508120248 25 359 1.6 1.6 0.00 0.00 0.00 42 1017.6
20260508115748 26 253 3.2 3.2 0.00 0.00 0.00 42 1017.9
20260508115247 25 241 8.0 8.0 0.00 0.00 0.00 41 1017.9
20260508114747 25 241 8.0 8.0 0.00 0.00 0.00 41 1017.9
20260508114248 25 150 4.8 4.8 0.00 0.00 0.00 42 1017.9
20260508113747 25 216 11.3 11.3 0.00 0.00 0.00 44 1017.9
20260508113249 26 245 8.0 8.0 0.00 0.00 0.00 42 1017.9
20260508112748 25 310 4.8 6.4 0.00 0.00 0.00 42 1017.9
20260508112247 25 241 4.8 6.4 0.00 0.00 0.00 40 1017.9
20260508111748 25 138 4.8 4.8 0.00 0.00 0.00 41 1018.3
20260508111247 25 168 9.7 11.3 0.00 0.00 0.00 42 1018.3
20260508110747 25 252 3.2 3.2 0.00 0.00 0.00 43 1018.3
20260508110247 25 205 8.0 8.0 0.00 0.00 0.00 43 1018.3
20260508105748 25 232 8.0 8.0 0.00 0.00 0.00 42 1018.3
20260508105248 25 156 4.8 4.8 0.00 0.00 0.00 40 1018.3
20260508104747 25 210 14.5 14.5 0.00 0.00 0.00 41 1018.3
20260508104247 25 278 1.6 1.6 0.00 0.00 0.00 43 1018.6
20260508103749 24 250 3.2 3.2 0.00 0.00 0.00 43 1018.6
20260508103247 24 206 8.0 9.7 0.00 0.00 0.00 41 1018.6
20260508102748 25 265 12.9 12.9 0.00 0.00 0.00 41 1018.6
20260508102247 24 166 12.9 12.9 0.00 0.00 0.00 41 1018.6
20260508101748 24 196 6.4 6.4 0.00 0.00 0.00 40 1019.0
20260508101247 24 260 9.7 11.3 0.00 0.00 0.00 43 1019.0
20260508100748 25 156 3.2 3.2 0.00 0.00 0.00 42 1019.0
20260508100247 24 340 0.0 0.0 0.00 0.00 0.00 42 1019.0
20260508095748 24 247 4.8 4.8 0.00 0.00 0.00 43 1019.0
20260508095248 24 198 9.7 11.3 0.00 0.00 0.00 43 1019.0
20260508094747 24 287 8.0 8.0 0.00 0.00 0.00 44 1019.3
20260508094247 25 184 8.0 8.0 0.00 0.00 0.00 44 1019.3
20260508093748 25 216 3.2 3.2 0.00 0.00 0.00 42 1019.0
20260508093247 25 262 0.0 0.0 0.00 0.00 0.00 42 1019.6
20260508092747 24 194 1.6 1.6 0.00 0.00 0.00 45 1019.6
20260508092249 23 150 3.2 3.2 0.00 0.00 0.00 45 1019.6
20260508091748 23 282 1.6 1.6 0.00 0.00 0.00 45 1019.6
20260508091248 24 196 8.0 9.7 0.00 0.00 0.00 44 1019.6
20260508090747 23 144 3.2 3.2 0.00 0.00 0.00 44 1019.6
20260508090247 23 83 1.6 1.6 0.00 0.00 0.00 42 1019.6
20260508085747 23 216 4.8 4.8 0.00 0.00 0.00 41 1019.6
20260508085247 25 96 0.0 0.0 0.00 0.00 0.00 39 1019.6
20260508084748 23 114 3.2 3.2 0.00 0.00 0.00 42 1019.6
20260508084247 23 152 0.0 0.0 0.00 0.00 0.00 44 1020.0
20260508083747 23 66 0.0 0.0 0.00 0.00 0.00 46 1020.0
20260508083248 24 304 0.0 0.0 0.00 0.00 0.00 43 1020.0
20260508082748 23 152 0.0 0.0 0.00 0.00 0.00 46 1020.3
20260508082247 23 0 0.0 0.0 0.00 0.00 0.00 45 1020.3
20260508081749 22 73 0.0 0.0 0.00 0.00 0.00 48 1020.3
20260508081252 22 287 3.2 3.2 0.00 0.00 0.00 51 1020.0
20260508080748 23 288 4.8 4.8 0.00 0.00 0.00 48 1020.0
20260508080247 23 9 3.2 3.2 0.00 0.00 0.00 50 1020.3
20260508075748 22 66 0.0 0.0 0.00 0.00 0.00 48 1020.3
20260508075248 22 104 3.2 3.2 0.00 0.00 0.00 49 1020.3
20260508074747 22 95 0.0 0.0 0.00 0.00 0.00 50 1020.3
20260508074248 22 282 0.0 0.0 0.00 0.00 0.00 50 1020.3
20260508073747 22 49 0.0 0.0 0.00 0.00 0.00 51 1020.3
20260508073249 22 78 0.0 0.0 0.00 0.00 0.00 49 1020.3
20260508072747 22 78 1.6 1.6 0.00 0.00 0.00 51 1020.7
20260508072248 22 7 0.0 0.0 0.00 0.00 0.00 52 1020.3
20260508071748 22 212 3.2 3.2 0.00 0.00 0.00 51 1020.3
20260508071247 21 315 0.0 0.0 0.00 0.00 0.00 53 1020.3
20260508070747 21 50 0.0 0.0 0.00 0.00 0.00 54 1020.3
20260508070248 20 90 0.0 0.0 0.00 0.00 0.00 54 1020.7
20260508065748 20 193 0.0 0.0 0.00 0.00 0.00 58 1020.7
20260508065248 19 282 4.8 4.8 0.00 0.00 0.00 62 1020.7
20260508064747 18 130 4.8 4.8 0.00 0.00 0.00 63 1020.3
20260508064247 18 232 0.0 0.0 0.00 0.00 0.00 62 1020.7
20260508063747 19 199 1.6 1.6 0.00 0.00 0.00 60 1020.7
20260508063248 18 145 3.2 3.2 0.00 0.00 0.00 63 1020.7
20260508062747 19 163 3.2 3.2 0.00 0.00 0.00 60 1020.7
20260508062247 19 270 3.2 3.2 0.00 0.00 0.00 61 1020.3
20260508061748 18 60 0.0 0.0 0.00 0.00 0.00 63 1020.3
20260508061247 18 184 3.2 3.2 0.00 0.00 0.00 64 1020.3
20260508060747 18 180 0.0 0.0 0.00 0.00 0.00 61 1020.7
20260508060247 18 102 0.0 0.0 0.00 0.00 0.00 60 1020.7
20260508055747 17 41 0.0 0.0 0.00 0.00 0.00 62 1020.7
20260508055248 17 209 0.0 0.0 0.00 0.00 0.00 61 1020.7
20260508054748 17 69 0.0 0.0 0.00 0.00 0.00 64 1020.7
20260508054247 17 272 1.6 1.6 0.00 0.00 0.00 64 1020.7
20260508053747 17 85 0.0 0.0 0.00 0.00 0.00 65 1020.3
20260508053248 17 80 0.0 0.0 0.00 0.00 0.00 66 1020.7
20260508052747 17 354 0.0 0.0 0.00 0.00 0.00 65 1020.7
20260508052248 17 96 0.0 0.0 0.00 0.00 0.00 64 1020.3
20260508051748 17 60 1.6 1.6 0.00 0.00 0.00 64 1020.3
20260508051248 17 270 1.6 1.6 0.00 0.00 0.00 64 1020.3
20260508050748 17 79 0.0 0.0 0.00 0.00 0.00 64 1020.3
20260508050247 16 138 0.0 0.0 0.00 0.00 0.00 68 1020.0
20260508045747 16 162 0.0 0.0 0.00 0.00 0.00 69 1020.3
20260508045248 16 78 0.0 0.0 0.00 0.00 0.00 69 1020.3
20260508044748 16 102 0.0 0.0 0.00 0.00 0.00 70 1020.3
20260508044247 15 120 0.0 0.0 0.00 0.00 0.00 70 1020.3
20260508043747 15 124 0.0 0.0 0.00 0.00 0.00 73 1020.3
20260508043247 15 66 3.2 3.2 0.00 0.00 0.00 72 1020.3
20260508042748 15 114 0.0 0.0 0.00 0.00 0.00 74 1020.3
20260508042248 14 114 0.0 0.0 0.00 0.00 0.00 73 1020.3
20260508041747 14 84 0.0 0.0 0.00 0.00 0.00 75 1020.3
20260508041248 13 102 3.2 3.2 0.00 0.00 0.00 75 1020.0
20260508040302 12 60 0.0 0.0 0.00 0.00 0.00 78 1020.0
20260508035747 12 2 0.0 0.0 0.00 0.00 0.00 79 1020.3
20260508035248 12 354 0.0 0.0 0.00 0.00 0.00 79 1020.0
20260508034749 12 66 0.0 0.0 0.00 0.00 0.00 81 1020.0
20260508034247 12 60 3.2 3.2 0.00 0.00 0.00 80 1020.0
20260508033747 12 48 0.0 0.0 0.00 0.00 0.00 79 1020.0
20260508033249 12 132 0.0 0.0 0.00 0.00 0.00 78 1019.6
20260508032747 12 355 0.0 0.0 0.00 0.00 0.00 78 1019.6
20260508032248 11 90 0.0 0.0 0.00 0.00 0.00 81 1019.6
20260508031749 11 113 0.0 0.0 0.00 0.00 0.00 81 1020.0
20260508031248 11 66 0.0 0.0 0.00 0.00 0.00 83 1019.6
20260508030748 10 193 0.0 0.0 0.00 0.00 0.00 84 1019.6
20260508030247 10 240 0.0 0.0 0.00 0.00 0.00 85 1019.6
20260508025748 11 183 0.0 0.0 0.00 0.00 0.00 86 1019.6
20260508025247 11 192 3.2 3.2 0.00 0.00 0.00 85 1019.6
20260508024747 11 288 0.0 0.0 0.00 0.00 0.00 85 1019.6
20260508024248 11 194 0.0 0.0 0.00 0.00 0.00 84 1019.6
20260508023749 11 202 3.2 3.2 0.00 0.00 0.00 84 1019.6
20260508023247 11 210 0.0 0.0 0.00 0.00 0.00 84 1019.6
20260508022748 11 193 0.0 0.0 0.00 0.00 0.00 83 1019.6
20260508022247 11 125 0.0 0.0 0.00 0.00 0.00 83 1019.3
20260508021748 11 222 3.2 3.2 0.00 0.00 0.00 84 1019.6
20260508021247 11 222 3.2 3.2 0.00 0.00 0.00 84 1019.0
20260508020747 11 144 1.6 1.6 0.00 0.00 0.00 83 1019.3
20260508020248 11 186 1.6 1.6 0.00 0.00 0.00 83 1019.3
20260508015747 11 277 0.0 0.0 0.00 0.00 0.00 83 1019.3
20260508015247 11 186 0.0 0.0 0.00 0.00 0.00 84 1019.3
20260508014748 11 192 0.0 0.0 0.00 0.00 0.00 83 1019.0
20260508014248 11 162 0.0 0.0 0.00 0.00 0.00 84 1019.3
20260508013747 11 180 0.0 0.0 0.00 0.00 0.00 83 1019.3
20260508013247 11 142 0.0 0.0 0.00 0.00 0.00 83 1019.3
20260508012747 11 240 1.6 1.6 0.00 0.00 0.00 82 1019.3
20260508012247 11 174 0.0 0.0 0.00 0.00 0.00 83 1019.3
20260508011748 11 84 0.0 0.0 0.00 0.00 0.00 82 1019.0
20260508011247 11 90 0.0 0.0 0.00 0.00 0.00 82 1019.3
20260508010748 11 96 0.0 0.0 0.00 0.00 0.00 81 1019.3
20260508010247 11 48 0.0 0.0 0.00 0.00 0.00 81 1019.0
20260508005747 12 108 0.0 0.0 0.00 0.00 0.00 81 1019.0
20260508005248 12 54 0.0 0.0 0.00 0.00 0.00 81 1019.0
20260508004748 12 222 0.0 0.0 0.00 0.00 0.00 81 1019.3
20260508004250 12 288 0.0 0.0 0.00 0.00 0.00 80 1019.0
20260508003748 12 102 0.0 0.0 0.00 0.00 0.00 79 1019.3
20260508003248 12 72 0.0 0.0 0.00 0.00 0.00 78 1019.3
20260508002748 12 288 0.0 0.0 0.00 0.00 0.00 78 1019.3
20260508002248 12 264 0.0 0.0 0.00 0.00 0.00 79 1019.3
20260508001748 12 30 0.0 0.0 0.00 0.00 0.00 81 1019.3
20260508001247 12 6 1.6 1.6 0.00 0.00 0.00 81 1019.3
20260508000747 12 54 0.0 0.0 0.00 0.00 0.00 81 1019.3
20260508000250 11 66 0.0 0.0 0.00 0.00 0.00 82 1019.3
20260507235748 12 60 0.0 0.0 0.00 0.00 0.00 82 1019.3
20260507235247 12 66 3.2 3.2 0.00 0.00 0.00 82 1019.3
20260507234747 12 54 0.0 0.0 0.00 0.00 0.00 81 1019.3
20260507234248 12 6 0.0 0.0 0.00 0.00 0.00 81 1019.3
20260507233747 12 156 0.0 0.0 0.00 0.00 0.00 81 1019.3
20260507233248 12 102 0.0 0.0 0.00 0.00 0.00 81 1019.3
20260507232747 12 42 0.0 0.0 0.00 0.00 0.00 82 1019.3
20260507232247 12 272 0.0 0.0 0.00 0.00 0.00 83 1019.3
20260507231747 12 78 0.0 0.0 0.00 0.00 0.00 83 1019.3
20260507231247 12 60 1.6 1.6 0.00 0.00 0.00 83 1019.3
20260507230747 12 72 0.0 0.0 0.00 0.00 0.00 83 1019.3
20260507230247 12 96 0.0 0.0 0.00 0.00 0.00 83 1019.3
20260507225748 12 108 0.0 0.0 0.00 0.00 0.00 83 1019.3
20260507225248 12 330 0.0 0.0 0.00 0.00 0.00 83 1019.3
20260507224748 12 6 0.0 0.0 0.00 0.00 0.00 83 1019.3
20260507224248 12 91 0.0 0.0 0.00 0.00 0.00 83 1019.3
20260507223747 12 120 0.0 0.0 0.00 0.00 0.00 83 1019.3
20260507223247 13 42 0.0 0.0 0.00 0.00 0.00 83 1019.3
20260507222748 13 66 0.0 0.0 0.00 0.00 0.00 83 1019.3
20260507222247 13 6 0.0 0.0 0.00 0.00 0.00 84 1019.6
20260507221748 13 210 1.6 1.6 0.00 0.00 0.00 83 1019.3
20260507221249 13 213 0.0 0.0 0.00 0.00 0.00 83 1019.6
20260507220747 13 177 0.0 0.0 0.00 0.00 0.00 82 1019.6
20260507220247 13 248 1.6 1.6 0.00 0.00 0.00 82 1019.6
20260507215747 13 180 1.6 1.6 0.00 0.00 0.00 82 1019.6
20260507215248 13 192 0.0 0.0 0.00 0.00 0.00 81 1019.6
20260507214748 13 214 0.0 0.0 0.00 0.00 0.00 82 1019.6
20260507214248 13 225 4.8 4.8 0.00 0.00 0.00 80 1019.6
20260507213747 13 204 0.0 0.0 0.00 0.00 0.00 80 1019.3
20260507213248 13 114 0.0 0.0 0.00 0.00 0.00 80 1019.3
20260507212748 14 0 0.0 0.0 0.00 0.00 0.00 80 1019.6
20260507212247 14 182 0.0 0.0 0.00 0.00 0.00 79 1019.3
20260507211747 14 186 0.0 0.0 0.00 0.00 0.00 79 1019.3
20260507211247 14 102 0.0 0.0 0.00 0.00 0.00 79 1019.3
20260507210748 14 174 0.0 0.0 0.00 0.00 0.00 78 1019.3
20260507210248 14 168 0.0 0.0 0.00 0.00 0.00 78 1019.3
20260507205747 14 240 0.0 0.0 0.00 0.00 0.00 77 1019.0
20260507205247 14 183 0.0 0.0 0.00 0.00 0.00 78 1019.0
20260507204747 15 72 1.6 1.6 0.00 0.00 0.00 77 1019.0
20260507204247 15 30 0.0 0.0 0.00 0.00 0.00 76 1019.0
20260507203747 15 60 0.0 0.0 0.00 0.00 0.00 76 1019.0
20260507203247 15 30 3.2 3.2 0.00 0.00 0.00 76 1019.0
20260507202748 15 102 0.0 0.0 0.00 0.00 0.00 77 1019.0
20260507202247 15 177 0.0 0.0 0.00 0.00 0.00 76 1018.6
20260507201748 15 306 0.0 0.0 0.00 0.00 0.00 76 1018.6
20260507201247 15 54 0.0 0.0 0.00 0.00 0.00 76 1018.6
20260507200748 15 48 0.0 0.0 0.00 0.00 0.00 76 1019.0
20260507200247 15 91 0.0 0.0 0.00 0.00 0.00 77 1019.0
20260507195748 15 66 1.6 1.6 0.00 0.00 0.00 76 1019.0
20260507195247 15 48 3.2 3.2 0.00 0.00 0.00 76 1019.0
20260507194747 15 36 1.6 1.6 0.00 0.00 0.00 76 1019.0
20260507194247 15 60 0.0 0.0 0.00 0.00 0.00 77 1019.0
20260507193747 15 66 0.0 0.0 0.00 0.00 0.00 77 1019.0
20260507193247 15 354 0.0 0.0 0.00 0.00 0.00 76 1019.0
20260507192747 16 96 3.2 3.2 0.00 0.00 0.00 75 1019.0
20260507192249 16 348 0.0 0.0 0.00 0.00 0.00 75 1019.0
20260507191748 16 96 0.0 0.0 0.00 0.00 0.00 74 1019.0
20260507191247 16 72 0.0 0.0 0.00 0.00 0.00 73 1019.0
20260507190747 16 66 0.0 0.0 0.00 0.00 0.00 71 1019.0
20260507190249 17 106 0.0 0.0 0.00 0.00 0.00 70 1019.0
20260507185748 17 318 1.6 1.6 0.00 0.00 0.00 69 1019.0
20260507185247 17 288 3.2 3.2 0.00 0.00 0.00 68 1019.0
20260507184747 17 1 1.6 1.6 0.00 0.00 0.00 70 1019.0
20260507184247 17 240 0.0 0.0 0.00 0.00 0.00 70 1019.0
20260507183747 17 126 0.0 0.0 0.00 0.00 0.00 70 1019.0
20260507183248 17 91 0.0 0.0 0.00 0.00 0.00 70 1019.0
20260507182748 17 126 0.0 0.0 0.00 0.00 0.00 70 1018.6
20260507182247 17 96 0.0 0.0 0.00 0.00 0.00 69 1018.6
20260507181748 17 150 1.6 1.6 0.00 0.00 0.00 68 1019.0
20260507181248 17 90 0.0 0.0 0.00 0.00 0.00 68 1018.6
20260507180747 17 90 0.0 0.0 0.00 0.00 0.00 69 1018.6
20260507180247 17 168 4.8 4.8 0.00 0.00 0.00 69 1018.6
20260507175748 17 172 0.0 0.0 0.00 0.00 0.00 69 1018.3
20260507175248 17 54 0.0 0.0 0.00 0.00 0.00 67 1018.3
20260507174747 18 132 0.0 0.0 0.00 0.00 0.00 67 1018.3
20260507174248 18 54 0.0 0.0 0.00 0.00 0.00 68 1017.9
20260507173747 18 158 0.0 0.0 0.00 0.00 0.00 68 1018.3
20260507173248 18 270 0.0 0.0 0.00 0.00 0.00 67 1018.3
20260507172747 18 108 0.0 0.0 0.00 0.00 0.00 67 1017.9
20260507172248 18 136 0.0 0.0 0.00 0.00 0.00 66 1017.9
20260507171748 18 97 0.0 0.0 0.00 0.00 0.00 65 1018.3
20260507171249 19 60 0.0 0.0 0.00 0.00 0.00 63 1017.9
20260507170748 19 102 0.0 0.0 0.00 0.00 0.00 62 1017.9
20260507170247 20 6 0.0 0.0 0.00 0.00 0.00 56 1017.9
20260507165748 20 0 1.6 1.6 0.00 0.00 0.00 53 1017.9
20260507165248 21 348 3.2 3.2 0.00 0.00 0.00 51 1017.9
20260507164749 20 312 6.4 6.4 0.00 0.00 0.00 52 1017.9
20260507164248 21 330 3.2 3.2 0.00 0.00 0.00 51 1017.6
20260507163747 21 328 6.4 8.0 0.00 0.00 0.00 49 1017.9
20260507163249 21 294 3.2 3.2 0.00 0.00 0.00 47 1017.6
20260507162747 21 330 8.0 8.0 0.00 0.00 0.00 47 1017.6
20260507162248 21 342 4.8 4.8 0.00 0.00 0.00 47 1017.9
20260507161747 21 344 3.2 3.2 0.00 0.00 0.00 48 1017.9
20260507161247 21 348 4.8 4.8 0.00 0.00 0.00 48 1017.6
20260507160748 21 316 4.8 4.8 0.00 0.00 0.00 47 1017.6
20260507160248 22 348 3.2 3.2 0.00 0.00 0.00 46 1017.6
20260507155747 22 310 4.8 4.8 0.00 0.00 0.00 45 1017.6
20260507155247 22 287 0.0 0.0 0.00 0.00 0.00 41 1017.6
20260507154747 23 341 4.8 4.8 0.00 0.00 0.00 38 1017.6
20260507154247 23 354 3.2 3.2 0.00 0.00 0.00 37 1017.6
20260507153748 23 347 4.8 4.8 0.00 0.00 0.00 36 1017.6
20260507153248 24 353 0.0 0.0 0.00 0.00 0.00 35 1017.6
20260507152747 24 343 4.8 4.8 0.00 0.00 0.00 35 1017.6
20260507152247 24 345 6.4 6.4 0.00 0.00 0.00 29 1017.6
20260507151748 25 354 0.0 0.0 0.00 0.00 0.00 30 1017.6
20260507151247 24 270 3.2 3.2 0.00 0.00 0.00 29 1017.3
20260507150748 25 306 3.2 3.2 0.00 0.00 0.00 28 1017.6
20260507150248 25 30 0.0 0.0 0.00 0.00 0.00 29 1017.6
20260507145748 25 350 0.0 0.0 0.00 0.00 0.00 29 1017.3
20260507145248 25 270 0.0 0.0 0.00 0.00 0.00 31 1017.3
20260507144747 25 48 0.0 0.0 0.00 0.00 0.00 30 1017.3
20260507144248 25 338 0.0 0.0 0.00 0.00 0.00 29 1017.6
20260507143748 25 64 0.0 0.0 0.00 0.00 0.00 30 1017.6
20260507143248 25 227 0.0 0.0 0.00 0.00 0.00 31 1017.6
20260507142748 25 216 0.0 0.0 0.00 0.00 0.00 28 1017.6
20260507142248 25 299 0.0 0.0 0.00 0.00 0.00 32 1017.3